Stations météo

réclame
Mon MeteoGroup
Saint-Brieuc, France (7120): Température de l'air & dewpoint: 19.09.2018 09:00:00 - 25.09.2018 09:00:00 (CEST)Saint-Brieuc, France (7120): Température de l'air 5cm: 19.09.2018 09:00:00 - 25.09.2018 09:00:00 (CEST)Saint-Brieuc, France (7120): Température de l'air -20cm & Température de l'air -100cm: 19.09.2018 09:00:00 - 25.09.2018 09:00:00 (CEST)Saint-Brieuc, France (7120): Vitesse du vent & gusts: 19.09.2018 09:00:00 - 25.09.2018 09:00:00 (CEST)Saint-Brieuc, France (7120): Direction du vent: 19.09.2018 09:00:00 - 25.09.2018 09:00:00 (CEST)Saint-Brieuc, France (7120): reduced air pressure: 19.09.2018 09:00:00 - 25.09.2018 09:00:00 (CEST)Saint-Brieuc, France (7120): visibility: 19.09.2018 09:00:00 - 25.09.2018 09:00:00 (CEST)Saint-Brieuc, France (7120): Ensoleillement: 19.09.2018 09:00:00 - 25.09.2018 09:00:00 (CEST)Saint-Brieuc, France (7120): Quantités de précipitations: 19.09.2018 09:00:00 - 25.09.2018 09:00:00 (CEST)
Date & Time tt [°C] td [°C] tt 5cm [°C] tt -20cm [°C] tt -100cm [°C] ff [km/h] ff [knt] fx [km/h] fx [knt] dd ppp [hPa] vv [km] sd [min] rr [mm]
25.09.2018 09:00:00 5,8 4,8 1,9 13,7 16,5 0 0 4 2 N 1037,4 20 35 0,0
25.09.2018 08:00:00 6,7 4,9 2,3 13,9 16,5 3 2 4 2 SSE 1036,8 20 0 0,0
25.09.2018 07:00:00 7,0 4,8 3,1 14,1 16,5 4 2 9 5 SE 1036,7 20 0 0,0
25.09.2018 06:00:00 7,2 5,0 2,9 14,3 16,5 3 2 8 4 SE 1037,0 20 0 0,0
25.09.2018 05:00:00 7,8 5,4 4,7 14,5 16,5 5 3 9 5 SE 1037,0 20 0 0,0
25.09.2018 04:00:00 8,1 5,6 4,0 14,7 16,5 5 3 9 5 SE 1037,4 20 0 0,0
25.09.2018 03:00:00 8,8 5,9 6,1 14,9 16,5 4 2 14 8 ESE 1037,4 20 0 0,0
25.09.2018 02:00:00 9,7 6,8 7,3 15,1 16,5 5 3 18 10 SE 1037,8 20 0 0,0
25.09.2018 01:00:00 11,6 6,9 10,5 15,2 16,6 13 7 26 14 E 1037,8 20 0 0,0
25.09.2018 00:00:00 12,4 7,5 11,7 15,3 16,6 11 6 26 14 E 1037,8 20 0 0,0
24.09.2018 23:00:00 12,7 6,9 11,4 15,4 16,6 14 8 27 15 ENE 1037,6 20 0 0,0
24.09.2018 22:00:00 13,0 7,9 11,9 15,5 16,6 16 8 27 15 NE 1037,3 20 0 0,0
24.09.2018 21:00:00 13,2 7,6 12,3 15,6 16,6 16 9 30 16 NE 1037,2 20 0 0,0
24.09.2018 20:00:00 13,0 7,4 12,6 15,6 16,6 16 8 24 13 NNE 1037,0 20 35 0,0
24.09.2018 19:00:00 13,6 7,1 14,2 15,5 16,6 18 10 31 17 NE 1036,7 20 39 0,0
24.09.2018 18:00:00 14,3 6,9 14,6 15,4 16,6 19 10 30 16 NNE 1036,8 20 35 0,0
24.09.2018 17:00:00 15,0 5,8 16,7 15,3 16,6 19 11 33 18 NE 1037,2 20 55 0,0
24.09.2018 16:00:00 14,6 5,7 15,9 15,1 16,6 21 12 31 17 NE 1037,4 20 45 0,0
24.09.2018 15:00:00 15,2 5,7 18,8 14,7 16,6 18 10 29 16 NE 1037,7 20 56 0,0
24.09.2018 14:00:00 15,1 6,9 15,7 14,6 16,6 18 10 35 19 NE 1038,1 20 44 0,0
24.09.2018 13:00:00 14,5 6,3 13,8 14,4 16,6 21 12 32 17 NE 1038,3 20 33 0,0
24.09.2018 12:00:00 13,7 6,8 14,5 14,3 16,6 16 9 29 15 ENE 1038,4 20 45 1,0
24.09.2018 11:00:00 14,8 7,1 12,1 14,3 16,6 18 10 41 22 NE 1037,9 20 31 0,0
24.09.2018 10:00:00 12,8 6,6 12,3 14,4 16,6 11 6 29 15 ENE 1037,2 20 29 0,0
24.09.2018 09:00:00 12,3 7,0 7,7 14,4 16,6 13 7 21 12 NE 1036,3 20 22 0,0
24.09.2018 08:00:00 10,4 5,0 8,1 14,5 16,6 10 5 23 12 NNE 1035,9 20 0 0,0
24.09.2018 07:00:00 11,5 5,6 9,9 14,6 16,6 14 8 26 14 NNE 1035,6 20 0 0,0
24.09.2018 06:00:00 11,7 5,6 10,4 14,8 16,6 14 8 34 18 NE 1035,1 20 0 0,0
24.09.2018 05:00:00 12,0 5,8 10,6 14,9 16,6 19 10 29 16 NE 1034,7 20 0 0,0
24.09.2018 04:00:00 12,0 6,7 6,5 15,0 16,6 18 10 35 19 NE 1034,4 20 0 0,0
24.09.2018 03:00:00 8,3 5,8 5,6 15,2 16,6 5 3 13 7 NW 1034,0 20 0 0,0
24.09.2018 02:00:00 7,6 5,1 5,4 15,4 16,6 8 5 13 7 WNW 1033,5 20 0 0,0
24.09.2018 01:00:00 8,1 5,6 6,5 15,6 16,6 11 6 14 8 W 1033,1 20 0 0,0
24.09.2018 00:00:00 9,5 5,9 7,5 15,9 16,6 9 5 17 9 NW 1032,1 20 0 0,0
23.09.2018 23:00:00 8,8 6,2 7,2 16,1 16,7 8 5 13 7 NW 1031,4 20 0 0,0
23.09.2018 22:00:00 9,7 6,8 7,1 16,3 16,7 8 4 14 8 NW 1030,5 20 0 0,0
23.09.2018 21:00:00 10,4 6,9 8,8 16,5 16,7 9 5 26 14 NNW 1029,2 20 0 0,0
23.09.2018 20:00:00 11,9 6,4 11,1 16,6 16,6 16 9 39 21 N 1028,5 20 23 0,0
23.09.2018 19:00:00 12,7 6,7 13,4 16,8 16,7 25 14 46 25 N 1027,0 20 41 0,0
23.09.2018 18:00:00 13,0 7,2 13,3 17,0 16,7 28 15 45 25 N 1025,9 20 33 0,0
23.09.2018 17:00:00 12,9 9,3 12,3 17,1 16,7 26 14 46 25 N 1024,7 20 3 0,0
23.09.2018 16:00:00 12,9 10,3 12,8 17,2 16,7 23 12 39 21 N 1023,2 20 0 0,0
23.09.2018 15:00:00 12,9 11,5 13,2 17,2 16,7 24 13 42 23 N 1021,7 14 0 0,2
23.09.2018 14:00:00 13,7 12,9 14,2 17,3 16,7 26 14 48 26 N 1020,2 3,1 0 1,2
23.09.2018 13:00:00 15,1 14,6 15,1 17,3 16,7 19 10 38 21 NW 1018,0 3,3 0 0,4
23.09.2018 12:00:00 16,7 14,3 16,0 17,2 16,7 29 16 48 26 WNW 1016,4 7 0 0,2
23.09.2018 11:00:00 18,8 16,8 18,1 17,2 16,7 29 16 53 29 W 1015,2 9 9 0,0
23.09.2018 10:00:00 19,1 17,1 18,2 17,1 16,7 28 15 50 27 WSW 1014,1 20 5 0,0
23.09.2018 09:00:00 18,6 16,9 17,8 17,1 16,7 21 11 34 18 WSW 1013,5 20 3 0,0
23.09.2018 08:00:00 18,4 17,2 18,0 17,1 16,7 16 9 29 16 WSW 1014,2 13 0 0,0
23.09.2018 07:00:00 18,5 17,2 18,1 17,1 16,8 11 6 28 15 SW 1014,5 19 0 0,0
23.09.2018 06:00:00 18,6 17,3 18,0 17,1 16,7 15 8 35 19 SW 1014,5 20 0 0,0
23.09.2018 05:00:00 18,7 17,4 18,0 17,1 16,8 16 9 44 24 WSW 1014,8 17 0 0,0
23.09.2018 04:00:00 18,9 17,2 18,1 17,0 16,7 24 13 42 23 WSW 1015,3 20 0 0,0
23.09.2018 03:00:00 18,9 17,6 18,1 17,0 16,8 21 11 39 21 WSW 1015,4 17 0 0,2
23.09.2018 02:00:00 18,9 17,7 18,2 16,9 16,8 23 12 40 22 WSW 1015,6 13 0 0,0
23.09.2018 01:00:00 19,0 17,8 18,4 16,9 16,8 20 11 41 22 WSW 1015,2 18 0 0,0
23.09.2018 00:00:00 19,2 17,7 18,9 16,8 16,8 20 11 39 21 WSW 1015,1 20 0 0,0
22.09.2018 23:00:00 19,2 17,7 18,7 16,7 16,8 18 10 36 19 WSW 1015,0 20 0 0,0
22.09.2018 22:00:00 19,3 17,6 18,4 16,7 16,8 21 11 51 28 WSW 1014,9 20 0 0,0
22.09.2018 21:00:00 19,3 17,8 18,5 16,6 16,8 27 15 43 23 WSW 1014,6 17 0 0,0
22.09.2018 20:00:00 19,4 17,9 18,8 16,4 16,8 25 14 44 24 WSW 1014,1 15 0 0,0
22.09.2018 19:00:00 19,4 18,1 18,8 16,3 16,8 25 14 46 25 WSW 1013,6 11 0 0,2
22.09.2018 18:00:00 19,4 18,1 18,9 16,1 16,8 23 12 48 26 SW 1013,4 7 0 0,0
22.09.2018 17:00:00 18,7 17,5 17,5 15,8 16,8 21 11 45 24 SSW 1013,6 9 5 0,2
22.09.2018 16:00:00 17,1 15,8 16,4 15,6 16,8 24 13 64 34 SSW 1014,2 18 3 0,2
22.09.2018 15:00:00 16,5 14,0 16,6 15,4 16,8 28 15 65 35 SSW 1014,8 11 11 0,0
22.09.2018 14:00:00 15,8 12,7 16,5 15,4 16,9 33 18 68 37 SSW 1015,8 19 0 0,0
22.09.2018 13:00:00 15,3 11,5 13,7 15,3 16,8 24 13 55 30 S 1017,6 20 0 0,0
22.09.2018 12:00:00 12,9 10,6 12,3 15,3 16,8 14 7 25 13 SSE 1019,7 20 0 0,0
22.09.2018 11:00:00 12,2 10,6 11,6 15,3 16,8 10 6 17 9 SSE 1020,7 19 0 0,0
22.09.2018 10:00:00 12,3 9,7 11,7 15,3 16,9 11 6 21 11 S 1021,6 19 0 0,0
22.09.2018 09:00:00 11,9 9,1 11,4 15,3 16,9 10 6 19 10 S 1021,4 20 0 0,0
22.09.2018 08:00:00 11,6 9,2 11,4 15,4 16,8 9 5 15 8 S 1021,6 20 0 0,0
22.09.2018 07:00:00 12,0 9,0 11,7 15,5 16,9 7 4 14 8 S 1021,8 20 0 0,0
22.09.2018 06:00:00 12,3 9,1 11,5 15,5 16,9 9 5 16 9 SW 1022,6 20 0 0,0
22.09.2018 05:00:00 11,8 9,0 11,4 15,6 16,9 8 4 13 7 SSW 1022,8 20 0 0,0
22.09.2018 04:00:00 11,8 8,8 11,2 15,6 16,9 6 4 14 7 SSW 1022,9 20 0 0,0
22.09.2018 03:00:00 11,8 8,6 11,3 15,8 16,9 7 4 19 10 SW 1023,1 20 0 0,0
22.09.2018 02:00:00 11,9 8,4 11,1 15,9 16,9 9 5 16 9 SW 1023,3 20 0 0,0
22.09.2018 01:00:00 12,4 7,9 11,5 16,0 16,9 7 4 18 10 SW 1023,3 20 0 0,0
22.09.2018 00:00:00 12,0 7,7 10,9 16,2 16,9 9 5 18 10 WSW 1023,7 20 0 0,0
21.09.2018 23:00:00 11,9 7,4 10,2 16,3 16,9 6 4 16 9 SW 1023,5 20 0 0,0
21.09.2018 22:00:00 12,0 7,3 8,6 16,5 16,9 8 5 12 7 WSW 1022,9 20 0 0,0
21.09.2018 21:00:00 11,9 6,8 8,7 16,6 16,9 3 2 16 8 W 1022,2 20 0 0,0
21.09.2018 20:00:00 13,8 6,6 12,4 16,7 16,9 10 6 27 15 WNW 1021,6 20 36 0,0
21.09.2018 19:00:00 15,8 6,8 16,3 16,7 16,8 19 11 33 18 W 1020,6 20 49 0,0
21.09.2018 18:00:00 16,6 6,1 17,2 16,8 16,9 18 10 40 21 WNW 1020,3 20 43 0,0
21.09.2018 17:00:00 16,4 5,4 16,4 16,8 16,9 22 12 42 23 W 1020,1 20 37 0,0
21.09.2018 16:00:00 15,6 6,6 16,5 16,7 16,9 23 12 44 24 W 1019,9 20 14 0,0
21.09.2018 15:00:00 16,8 6,3 18,8 16,6 16,9 28 15 45 24 WNW 1019,3 20 55 0,0
21.09.2018 14:00:00 15,0 8,7 12,4 16,6 16,8 24 13 55 30 W 1018,9 20 7 0,0
21.09.2018 13:00:00 14,9 6,7 16,5 16,5 16,8 27 14 41 22 WNW 1018,2 20 26 0,0
21.09.2018 12:00:00 15,0 8,0 15,7 16,5 16,8 23 13 38 21 W 1017,4 20 46 0,0
21.09.2018 11:00:00 14,4 9,4 13,8 16,6 16,8 19 10 29 16 W 1016,7 20 53 0,0
21.09.2018 10:00:00 12,8 9,6 11,3 16,7 16,8 14 8 21 11 W 1015,8 20 37 0,0
21.09.2018 09:00:00 11,4 8,8 10,8 16,9 16,9 13 7 24 13 W 1014,6 20 5 0,0
21.09.2018 08:00:00 11,3 9,4 10,4 17,2 16,8 11 6 18 10 W 1013,4 20 0 0,0
21.09.2018 07:00:00 11,7 9,1 10,6 17,4 16,9 13 7 34 18 W 1012,0 20 0 0,0
21.09.2018 06:00:00 12,4 9,0 11,5 17,7 16,8 20 11 36 19 WNW 1010,9 20 0 0,0
21.09.2018 05:00:00 13,2 10,6 11,9 17,9 16,9 21 11 41 22 W 1010,0 20 0 0,0
21.09.2018 04:00:00 13,9 11,6 12,7 18,1 16,9 24 13 45 24 W 1009,0 20 0 0,2
21.09.2018 03:00:00 14,4 13,1 13,9 18,2 16,9 29 16 65 35 W 1008,1 14 0 5,4
21.09.2018 02:00:00 17,9 16,8 16,9 18,2 16,8 23 12 52 28 SSW 1005,5 6 0 4,9
21.09.2018 01:00:00 17,9 16,2 16,6 18,3 16,9 24 13 53 29 SSW 1005,9 8 0 0,8
21.09.2018 00:00:00 18,0 15,4 16,6 18,4 16,9 22 12 54 29 SSW 1007,5 15 0 0,0
20.09.2018 23:00:00 18,7 15,4 17,9 18,4 16,8 23 12 49 26 SSW 1008,5 20 0 0,0
20.09.2018 22:00:00 18,4 15,8 17,2 18,5 16,9 19 11 42 23 SSW 1009,3 20 0 0,0
20.09.2018 21:00:00 18,5 15,6 18,1 18,6 16,9 16 9 44 24 SSW 1010,1 20 0 0,0
20.09.2018 20:00:00 19,3 15,2 19,2 18,6 16,8 22 12 48 26 SSW 1010,5 20 39 0,0
20.09.2018 19:00:00 20,3 14,9 20,8 18,5 16,8 20 11 47 26 SSW 1010,9 20 22 0,0
20.09.2018 18:00:00 21,2 14,1 22,2 18,4 16,8 22 12 49 26 SW 1011,8 20 29 0,0
20.09.2018 17:00:00 21,5 13,4 22,4 18,2 16,8 23 12 51 28 SW 1012,6 20 6 0,0
20.09.2018 16:00:00 21,4 13,6 22,8 18,1 16,8 24 13 49 27 SW 1013,2 20 0 0,0
20.09.2018 15:00:00 21,9 13,3 22,9 17,9 16,8 24 13 54 29 SW 1013,6 19 5 0,0
20.09.2018 14:00:00 21,5 14,2 22,7 17,8 16,8 24 13 54 29 SW 1013,8 20 0 0,0
20.09.2018 13:00:00 21,3 14,2 21,0 17,7 16,8 24 13 49 27 SW 1014,5 20 10 0,0
20.09.2018 12:00:00 20,0 15,0 20,8 17,6 16,8 22 12 48 26 SW 1015,4 19 12 0,0
20.09.2018 11:00:00 19,5 14,9 19,7 17,5 16,8 17 9 48 26 SSW 1015,5 20 26 0,0
20.09.2018 10:00:00 18,4 14,7 17,3 17,6 16,8 20 11 43 23 SSW 1015,9 18 19 0,0
20.09.2018 09:00:00 17,1 14,9 16,1 17,7 16,8 13 7 31 17 SSW 1016,0 16 0 0,0
20.09.2018 08:00:00 16,6 14,2 16,0 17,7 16,8 15 8 36 19 SW 1016,2 20 0 0,0
20.09.2018 07:00:00 16,6 14,2 16,0 17,8 16,8 18 10 42 23 SW 1016,2 20 0 0,0
20.09.2018 06:00:00 16,9 13,8 16,1 17,9 16,8 21 11 43 23 SW 1016,3 20 0 0,0
20.09.2018 05:00:00 17,2 14,1 16,4 18,0 16,8 21 11 45 24 SW 1016,6 20 0 0,0
20.09.2018 04:00:00 17,4 14,7 16,7 18,1 16,8 20 11 43 23 SW 1016,8 20 0 0,0
20.09.2018 03:00:00 17,4 14,9 16,5 18,2 16,8 22 12 43 23 SW 1016,8 20 0 0,0
20.09.2018 02:00:00 17,3 14,9 16,3 18,4 16,8 18 10 34 18 SW 1016,9 20 0 0,0
20.09.2018 01:00:00 17,2 15,2 16,3 18,5 16,8 14 8 29 16 SW 1017,7 19 0 0,0
20.09.2018 00:00:00 17,1 15,1 16,1 18,6 16,8 13 7 27 15 SSW 1018,1 20 0 0,0
19.09.2018 23:00:00 17,5 14,9 16,5 18,8 16,8 12 6 26 14 SSW 1018,3 20 0 0,0
19.09.2018 22:00:00 18,0 14,9 17,1 18,9 16,8 11 6 31 17 SW 1018,3 20 0 0,0
19.09.2018 21:00:00 18,9 15,0 18,0 18,9 16,7 14 8 32 17 SW 1018,1 20 0 0,0
19.09.2018 20:00:00 19,7 14,9 19,1 19,0 16,8 13 7 38 20 SW 1017,8 20 6 0,0
19.09.2018 19:00:00 21,2 14,8 20,9 19,0 16,8 18 10 40 22 SW 1017,5 20 29 0,0
19.09.2018 18:00:00 22,0 15,6 21,0 18,9 16,8 19 10 39 21 SW 1017,3 20 21 0,0
19.09.2018 17:00:00 21,9 14,8 22,4 18,7 16,8 18 10 37 20 SW 1017,2 20 11 0,0
19.09.2018 16:00:00 22,5 14,9 23,7 18,5 16,8 19 10 44 24 WSW 1017,3 20 17 0,0
19.09.2018 15:00:00 23,3 15,1 24,6 18,2 16,8 21 12 45 24 SW 1017,3 20 35 0,0
19.09.2018 14:00:00 22,5 14,6 23,1 18,0 16,8 22 12 44 24 SW 1017,2 20 24 0,0
19.09.2018 13:00:00 21,9 14,5 21,5 17,8 16,8 25 14 49 27 SW 1017,1 20 49 0,0
19.09.2018 12:00:00 20,7 15,0 20,9 17,7 16,8 18 10 41 22 SW 1017,3 20 8 0,0
19.09.2018 11:00:00 19,9 15,1 19,9 17,7 16,8 15 8 36 19 SW 1017,1 20 17 0,0
19.09.2018 10:00:00 18,9 14,8 18,0 17,7 16,8 18 10 37 20 SW 1016,8 20 37 0,0
19.09.2018 09:00:00 17,8 14,9 16,9 17,7 16,8 13 7 29 16 SW 1016,2 20 0 0,0

tt = Température de l'air
td = dewpoint
tt 5cm = Température de l'air 5cm
tt -20cm = Température de l'air -20cm
tt -100cm = Température de l'air -100cm
ff = Vitesse du vent
fx = gusts
dd = Direction du vent
ppp = reduced air pressure
vv = visibility
sd = Ensoleillement
rr = Quantités de précipitations

stations d'obs. à proximité